sat.trackr.live / text

‹ back to catalog

STARLINK-30130

NORAD 56697 · 2023-067K

PAYLOAD ACTIVE UNKNOWN

§ Identity

Operator
Country
US
Launch date
2023-05-19
Launch site
AFETR
Launch vehicle
Mass (kg)
RCS (m²)

Purposes: comms

External: N2YO · Heavens-Above · Gunter

§ Orbital elements

Epoch: 2026-05-25T04:44:03.340032Z

Period
94.27 min
Inclination
43.0080°
Eccentricity
0.0003706
Mean motion
15.27562547 rev/d
Perigee alt
480.6 km
Apogee alt
485.6 km
Semi-major
6,861.2 km
B*
-1.3489e-4
RAAN
198.7501°
Arg perigee
281.6169°
Mean anomaly
78.4267°
Rev number
16,714

§ Raw data

STARLINK-301301 56697U 23067K   26145.19726088 -.00003972  00000+0 -13489-3 0  99902 56697  43.0080 198.7501 0003706 281.6169  78.4267 15.27562547167147

JSON: /api/v1/satellites/56697 · /tle

For live sub-satellite position, see the globe view (requires WebGL).

§ Visibility from observer

Set your observer location to see the next 7 days of passes ≥ 10°. The values pass through the URL so the page stays shareable.

No JS? Fill the form by hand. The geolocation button needs JavaScript.